GEESAT 3-04

导读 | 豆包AI

GEESAT 3-04是中国于2024年9月5日8时成功发射的商业卫星,隶属于GEESAT 3系列星座。该卫星聚焦对地观测领域,将依托光学遥感技术,为自然资源监测、农业估产、城市规划、灾害应急等领域提供高精度遥感数据服务,进一步完善我国商业遥感卫星组网能力,推动遥感数据商业化应用发展,助力国家空间基础设施建设。

基本信息
目录编号:
61014
目录名称:
GEESAT 3-04
国际标识:
2024-159D
轨道中心:
EARTH
卫星名称:
GEESAT 3-04
卫星全名:
GEESAT 3-04
卫星状态:
在轨 (已飞行576 天)
发射日期:
2024-09-05 UTC
国别 :
中国 (CN)
星等 :
--
轨道信息
数据来源 国际轨道数据
星历时间: 2026-04-04T04:42:53+0800
5小时前
查看轨道信息
半长轴: 6998.012km
偏心率: 0.0002499
轨道倾角: 49.999°
近地点辐角 145.113°
升交点赤经 338.251°
平近点角 214.997°
近地点: 618.126km
远地点: 621.624km
周期: 97.101分钟
每日圈数: 14.829989
详细信息
使用方式:
暂无
2D轨道图
3D轨道图
轨道高度分析图
轨道倾角分析图
轨道综合分析图
查看轨道综合分析图